{"data":{"norad_id":40484,"epoch":"2026-05-25T06:00:02.000160Z","epoch_age_seconds":52578,"freshness":"FRESH","line1":"1 40484U 15011C   26145.25002315 -.00000131  00000+0  00000+0 0  9998","line2":"2 40484  71.8201 349.1137 8340309 166.9235 118.6871  0.28348023  1371","mean_motion":0.28348023,"eccentricity":0.8340309,"inclination_deg":71.8201,"raan_deg":349.1137,"arg_perigee_deg":166.9235,"mean_anomaly_deg":118.6871,"bstar":0,"rev_number":137,"period_min":5079.7193158761,"perigee_km":9867.8921933894,"apogee_km":173147.56713998,"semimajor_km":97885.866666683,"source":"CELESTRAK","updated_at":"2026-05-25T13:38:24.644501Z"}}